Time,TemperatureF,DewpointF,PressureIn,WindDirection,WindDirectionDegrees,WindSpeedMPH,WindSpeedGustMPH,Humidity,HourlyPrecipIn,Conditions,Clouds,dailyrainin,SoftwareType,DateUTC
2013-07-27 00:00:00,68.6,66.5,30.02,NE,38,0.0,0.0,93,0.00,,,0.00,LWC V2.00 B2112,2013-07-27 04:00:00,
2013-07-27 00:01:00,68.6,66.5,30.02,NE,38,0.0,0.0,93,0.00,,,0.00,LWC V2.00 B2112,2013-07-27 04:01:00,
2013-07-27 00:06:00,68.4,66.3,30.02,NE,38,0.0,0.0,93,0.00,,,0.00,LWC V2.00 B2112,2013-07-27 04:06:00,
2013-07-27 00:11:00,68.4,66.3,30.02,NE,38,0.0,0.0,93,0.00,,,0.00,LWC V2.00 B2112,2013-07-27 04:11:00,
2013-07-27 00:16:00,68.3,66.2,30.02,NE,38,0.0,0.0,93,0.00,,,0.00,LWC V2.00 B2112,2013-07-27 04:16:00,
2013-07-27 00:21:00,68.3,66.2,30.02,NE,38,0.0,0.0,93,0.00,,,0.00,LWC V2.00 B2112,2013-07-27 04:21:00,
2013-07-27 00:26:00,68.1,66.0,30.02,NE,38,0.0,0.0,93,0.00,,,0.00,LWC V2.00 B2112,2013-07-27 04:26:00,
2013-07-27 00:31:00,68.1,66.0,30.02,NE,38,0.0,0.0,93,0.00,,,0.00,LWC V2.00 B2112,2013-07-27 04:31:00,
2013-07-27 00:36:00,67.9,65.8,30.02,NE,38,0.0,0.0,93,0.00,,,0.00,LWC V2.00 B2112,2013-07-27 04:36:00,
2013-07-27 00:41:00,67.9,66.1,30.02,NE,38,0.0,0.0,94,0.00,,,0.00,LWC V2.00 B2112,2013-07-27 04:41:00,
2013-07-27 00:46:00,67.8,66.0,30.02,NE,38,0.0,0.0,94,0.00,,,0.00,LWC V2.00 B2112,2013-07-27 04:46:00,
2013-07-27 00:51:00,67.8,66.0,30.02,NE,38,0.0,0.0,94,0.00,,,0.00,LWC V2.00 B2112,2013-07-27 04:51:00,
2013-07-27 00:56:00,67.6,65.8,30.02,NE,38,0.0,0.0,94,0.00,,,0.00,LWC V2.00 B2112,2013-07-27 04:56:00,
2013-07-27 01:01:00,67.6,65.8,30.02,NE,38,0.0,0.0,94,0.00,,,0.00,LWC V2.00 B2112,2013-07-27 05:01:00,
2013-07-27 01:06:00,67.6,65.8,30.02,NE,38,0.0,0.0,94,0.00,,,0.00,LWC V2.00 B2112,2013-07-27 05:06:00,
2013-07-27 01:11:00,67.4,65.6,30.02,NE,38,0.0,0.0,94,0.00,,,0.00,LWC V2.00 B2112,2013-07-27 05:11:00,
2013-07-27 01:16:00,67.4,65.9,30.02,NE,38,0.0,0.0,95,0.00,,,0.00,LWC V2.00 B2112,2013-07-27 05:16:00,
2013-07-27 01:21:00,67.4,65.6,30.02,NE,38,0.0,0.0,94,0.00,,,0.00,LWC V2.00 B2112,2013-07-27 05:21:00,
2013-07-27 01:26:00,67.4,65.9,30.02,NE,38,0.0,0.0,95,0.00,,,0.00,LWC V2.00 B2112,2013-07-27 05:26:00,
2013-07-27 01:31:00,67.3,65.8,30.02,NE,38,0.0,0.0,95,0.00,,,0.00,LWC V2.00 B2112,2013-07-27 05:31:00,
2013-07-27 01:36:00,67.3,65.8,30.02,NE,38,0.0,0.0,95,0.00,,,0.00,LWC V2.00 B2112,2013-07-27 05:36:00,
2013-07-27 01:41:00,67.3,65.8,30.01,NE,38,0.0,0.0,95,0.00,,,0.00,LWC V2.00 B2112,2013-07-27 05:41:00,
2013-07-27 01:46:00,67.1,65.6,30.01,NE,38,0.0,0.0,95,0.00,,,0.00,LWC V2.00 B2112,2013-07-27 05:46:00,
2013-07-27 01:51:00,67.1,65.6,30.01,NE,38,0.0,0.0,95,0.00,,,0.00,LWC V2.00 B2112,2013-07-27 05:51:00,
2013-07-27 01:56:00,67.1,65.6,30.01,NE,38,0.0,0.0,95,0.00,,,0.00,LWC V2.00 B2112,2013-07-27 05:56:00,
2013-07-27 02:01:00,67.1,65.6,30.01,NE,38,0.0,0.0,95,0.00,,,0.00,LWC V2.00 B2112,2013-07-27 06:01:00,
2013-07-27 02:06:00,66.9,65.4,30.01,NE,38,0.0,0.0,95,0.00,,,0.00,LWC V2.00 B2112,2013-07-27 06:06:00,
2013-07-27 02:11:00,66.9,65.4,30.02,NE,38,0.0,0.0,95,0.00,,,0.00,LWC V2.00 B2112,2013-07-27 06:11:00,
2013-07-27 02:16:00,67.1,65.6,30.02,NE,38,0.0,0.0,95,0.00,,,0.00,LWC V2.00 B2112,2013-07-27 06:16:00,
2013-07-27 02:21:00,66.9,65.4,30.02,NE,38,0.0,0.0,95,0.00,,,0.00,LWC V2.00 B2112,2013-07-27 06:21:00,
2013-07-27 02:26:00,67.1,65.6,30.01,NE,38,0.0,0.0,95,0.00,,,0.00,LWC V2.00 B2112,2013-07-27 06:26:00,
2013-07-27 02:31:00,66.9,65.4,30.01,NE,38,0.0,0.0,95,0.00,,,0.00,LWC V2.00 B2112,2013-07-27 06:31:00,
2013-07-27 02:36:00,66.9,65.4,30.01,NE,38,0.0,0.0,95,0.00,,,0.00,LWC V2.00 B2112,2013-07-27 06:36:00,
2013-07-27 02:41:00,66.9,65.4,30.00,NE,38,0.0,0.0,95,0.00,,,0.00,LWC V2.00 B2112,2013-07-27 06:41:00,
2013-07-27 02:46:00,66.9,65.7,30.00,NE,38,0.0,0.0,96,0.00,,,0.00,LWC V2.00 B2112,2013-07-27 06:46:00,
2013-07-27 02:51:00,67.1,65.9,30.00,NE,38,0.0,0.0,96,0.00,,,0.00,LWC V2.00 B2112,2013-07-27 06:51:00,
2013-07-27 02:56:00,67.1,65.9,30.00,NE,38,0.0,0.0,96,0.00,,,0.00,LWC V2.00 B2112,2013-07-27 06:56:00,
2013-07-27 03:01:00,67.1,65.9,30.00,NE,38,0.0,0.0,96,0.00,,,0.00,LWC V2.00 B2112,2013-07-27 07:01:00,
2013-07-27 03:06:00,67.1,65.9,30.00,NE,38,0.0,0.0,96,0.00,,,0.00,LWC V2.00 B2112,2013-07-27 07:06:00,
2013-07-27 03:11:00,66.9,65.7,29.99,NE,38,0.0,0.0,96,0.00,,,0.00,LWC V2.00 B2112,2013-07-27 07:11:00,
2013-07-27 03:16:00,66.9,65.7,29.99,NE,38,0.0,0.0,96,0.00,,,0.00,LWC V2.00 B2112,2013-07-27 07:16:00,
2013-07-27 03:21:00,66.9,65.7,29.99,NE,38,0.0,0.0,96,0.00,,,0.00,LWC V2.00 B2112,2013-07-27 07:21:00,
2013-07-27 03:26:00,66.8,65.6,29.99,NE,38,0.0,0.0,96,0.00,,,0.00,LWC V2.00 B2112,2013-07-27 07:26:00,
2013-07-27 03:31:00,66.8,65.3,29.99,NE,38,0.0,0.0,95,0.00,,,0.00,LWC V2.00 B2112,2013-07-27 07:31:00,
2013-07-27 03:36:00,66.6,65.1,29.99,NE,38,0.0,0.0,95,0.00,,,0.00,LWC V2.00 B2112,2013-07-27 07:36:00,
2013-07-27 03:41:00,66.4,64.9,29.99,NE,38,0.0,0.0,95,0.00,,,0.00,LWC V2.00 B2112,2013-07-27 07:41:00,
2013-07-27 03:46:00,66.4,64.9,29.99,NE,38,0.0,0.0,95,0.00,,,0.00,LWC V2.00 B2112,2013-07-27 07:46:00,
2013-07-27 03:51:00,66.3,64.8,29.99,NE,38,0.0,0.0,95,0.00,,,0.00,LWC V2.00 B2112,2013-07-27 07:51:00,
2013-07-27 03:56:00,66.3,64.8,29.99,NE,38,0.0,0.0,95,0.00,,,0.00,LWC V2.00 B2112,2013-07-27 07:56:00,
2013-07-27 04:01:00,66.1,64.6,29.99,NE,38,0.0,0.0,95,0.00,,,0.00,LWC V2.00 B2112,2013-07-27 08:01:00,
2013-07-27 04:06:00,66.1,64.9,29.99,NE,38,0.0,0.0,96,0.00,,,0.00,LWC V2.00 B2112,2013-07-27 08:06:00,
2013-07-27 04:11:00,66.0,64.8,29.98,NE,38,0.0,0.0,96,0.00,,,0.00,LWC V2.00 B2112,2013-07-27 08:11:00,
2013-07-27 04:16:00,66.0,64.8,29.98,NE,38,0.0,0.0,96,0.00,,,0.00,LWC V2.00 B2112,2013-07-27 08:16:00,
2013-07-27 04:21:00,66.0,64.5,29.98,NE,38,0.0,0.0,95,0.00,,,0.00,LWC V2.00 B2112,2013-07-27 08:21:00,
2013-07-27 04:26:00,65.8,64.6,29.99,NE,38,0.0,0.0,96,0.00,,,0.00,LWC V2.00 B2112,2013-07-27 08:26:00,
2013-07-27 04:31:00,65.8,64.6,29.99,NE,38,0.0,0.0,96,0.00,,,0.00,LWC V2.00 B2112,2013-07-27 08:31:00,
2013-07-27 04:36:00,65.8,64.6,29.99,NE,38,0.0,0.0,96,0.00,,,0.00,LWC V2.00 B2112,2013-07-27 08:36:00,
2013-07-27 04:41:00,65.6,64.4,29.99,NE,38,0.0,0.0,96,0.00,,,0.00,LWC V2.00 B2112,2013-07-27 08:41:00,
2013-07-27 04:46:00,65.6,64.4,29.99,NE,38,0.0,0.0,96,0.00,,,0.00,LWC V2.00 B2112,2013-07-27 08:46:00,
2013-07-27 04:51:00,65.6,64.4,29.99,NE,38,0.0,0.0,96,0.00,,,0.00,LWC V2.00 B2112,2013-07-27 08:51:00,
2013-07-27 04:56:00,65.6,64.4,29.99,NE,38,0.0,0.0,96,0.00,,,0.00,LWC V2.00 B2112,2013-07-27 08:56:00,
2013-07-27 05:01:00,65.5,64.3,29.99,NE,38,0.0,0.0,96,0.00,,,0.00,LWC V2.00 B2112,2013-07-27 09:01:00,
2013-07-27 05:06:00,65.5,64.3,29.99,NE,38,0.0,0.0,96,0.00,,,0.00,LWC V2.00 B2112,2013-07-27 09:06:00,
2013-07-27 05:11:00,65.5,64.3,29.99,NE,38,0.0,0.0,96,0.00,,,0.00,LWC V2.00 B2112,2013-07-27 09:11:00,
2013-07-27 05:16:00,65.5,64.3,29.99,NE,38,0.0,0.0,96,0.00,,,0.00,LWC V2.00 B2112,2013-07-27 09:16:00,
2013-07-27 05:21:00,65.3,64.1,29.99,NE,38,0.0,0.0,96,0.00,,,0.00,LWC V2.00 B2112,2013-07-27 09:21:00,
2013-07-27 05:26:00,65.3,64.1,29.99,NE,38,0.0,0.0,96,0.00,,,0.00,LWC V2.00 B2112,2013-07-27 09:26:00,
2013-07-27 05:31:00,65.3,64.1,29.99,NE,38,0.0,0.0,96,0.00,,,0.00,LWC V2.00 B2112,2013-07-27 09:31:00,
2013-07-27 05:36:00,65.3,64.1,29.99,NE,38,0.0,0.0,96,0.00,,,0.00,LWC V2.00 B2112,2013-07-27 09:36:00,
2013-07-27 05:41:00,65.3,64.1,29.99,NE,38,0.0,0.0,96,0.00,,,0.00,LWC V2.00 B2112,2013-07-27 09:41:00,
2013-07-27 05:46:00,65.3,64.1,29.99,NE,38,0.0,0.0,96,0.00,,,0.00,LWC V2.00 B2112,2013-07-27 09:46:00,
2013-07-27 05:51:00,65.2,64.0,29.99,NE,38,0.0,0.0,96,0.00,,,0.00,LWC V2.00 B2112,2013-07-27 09:51:00,
2013-07-27 05:56:00,65.2,64.0,29.99,NE,38,0.0,0.0,96,0.00,,,0.00,LWC V2.00 B2112,2013-07-27 09:56:00,
2013-07-27 06:01:00,65.2,64.0,29.99,NE,38,0.0,0.0,96,0.00,,,0.00,LWC V2.00 B2112,2013-07-27 10:01:00,
2013-07-27 06:06:00,65.2,64.0,29.99,NE,38,0.0,0.0,96,0.00,,,0.00,LWC V2.00 B2112,2013-07-27 10:06:00,
2013-07-27 06:11:00,65.2,64.0,29.99,NE,38,0.0,0.0,96,0.00,,,0.00,LWC V2.00 B2112,2013-07-27 10:11:00,
2013-07-27 06:16:00,65.2,64.0,29.99,NE,38,0.0,0.0,96,0.00,,,0.00,LWC V2.00 B2112,2013-07-27 10:16:00,
2013-07-27 06:21:00,65.2,64.0,29.99,NE,38,0.0,0.0,96,0.00,,,0.00,LWC V2.00 B2112,2013-07-27 10:21:00,
2013-07-27 06:26:00,65.2,64.0,29.99,NE,38,0.0,0.0,96,0.00,,,0.00,LWC V2.00 B2112,2013-07-27 10:26:00,
2013-07-27 06:31:00,65.2,64.3,29.99,NE,38,0.0,0.0,97,0.00,,,0.00,LWC V2.00 B2112,2013-07-27 10:31:00,
2013-07-27 06:36:00,65.2,64.3,29.99,NE,38,0.0,0.0,97,0.00,,,0.00,LWC V2.00 B2112,2013-07-27 10:36:00,
2013-07-27 06:41:00,65.3,64.4,30.00,NE,38,0.0,0.0,97,0.00,,,0.00,LWC V2.00 B2112,2013-07-27 10:41:00,
2013-07-27 06:46:00,65.3,64.4,30.00,NE,38,0.0,0.0,97,0.00,,,0.00,LWC V2.00 B2112,2013-07-27 10:46:00,
2013-07-27 06:51:00,65.5,64.6,30.00,NE,38,0.0,0.0,97,0.00,,,0.00,LWC V2.00 B2112,2013-07-27 10:51:00,
2013-07-27 06:56:00,65.6,64.7,30.00,NE,38,0.0,0.0,97,0.00,,,0.00,LWC V2.00 B2112,2013-07-27 10:56:00,
2013-07-27 07:01:00,65.8,64.9,30.00,NE,38,0.0,0.0,97,0.00,,,0.00,LWC V2.00 B2112,2013-07-27 11:01:00,
2013-07-27 07:06:00,66.0,65.4,30.00,NE,38,0.0,0.0,98,0.00,,,0.00,LWC V2.00 B2112,2013-07-27 11:06:00,
2013-07-27 07:11:00,66.1,65.5,30.00,NE,38,0.0,0.0,98,0.00,,,0.00,LWC V2.00 B2112,2013-07-27 11:11:00,
2013-07-27 07:16:00,66.4,65.8,30.00,NE,38,0.0,0.0,98,0.00,,,0.00,LWC V2.00 B2112,2013-07-27 11:16:00,
2013-07-27 07:21:00,66.6,66.0,30.00,NE,38,0.0,0.0,98,0.00,,,0.00,LWC V2.00 B2112,2013-07-27 11:21:00,
2013-07-27 07:26:00,66.8,66.2,30.00,NE,38,0.0,0.0,98,0.00,,,0.00,LWC V2.00 B2112,2013-07-27 11:26:00,
2013-07-27 07:31:00,66.9,66.3,30.00,NE,38,0.0,0.0,98,0.00,,,0.00,LWC V2.00 B2112,2013-07-27 11:31:00,
2013-07-27 07:36:00,67.3,66.7,30.00,NE,38,0.0,0.0,98,0.00,,,0.00,LWC V2.00 B2112,2013-07-27 11:36:00,
2013-07-27 07:41:00,67.4,66.8,30.00,NE,38,0.0,0.0,98,0.00,,,0.00,LWC V2.00 B2112,2013-07-27 11:41:00,
2013-07-27 07:46:00,67.6,67.0,30.00,NE,38,0.0,0.0,98,0.00,,,0.00,LWC V2.00 B2112,2013-07-27 11:46:00,
2013-07-27 07:51:00,67.9,67.3,30.00,NE,38,0.0,0.0,98,0.00,,,0.00,LWC V2.00 B2112,2013-07-27 11:51:00,
2013-07-27 07:56:00,68.3,68.0,30.00,NE,38,0.0,0.0,99,0.00,,,0.00,LWC V2.00 B2112,2013-07-27 11:56:00,
2013-07-27 08:01:00,68.6,68.3,30.00,NE,38,0.0,0.0,99,0.00,,,0.00,LWC V2.00 B2112,2013-07-27 12:01:00,
2013-07-27 08:06:00,68.8,68.5,30.00,NE,38,0.0,0.0,99,0.00,,,0.00,LWC V2.00 B2112,2013-07-27 12:06:00,
2013-07-27 08:11:00,69.1,68.8,30.00,NE,38,0.0,0.0,99,0.00,,,0.00,LWC V2.00 B2112,2013-07-27 12:11:00,
2013-07-27 08:16:00,69.4,69.1,30.00,NE,38,0.0,0.0,99,0.00,,,0.00,LWC V2.00 B2112,2013-07-27 12:16:00,
2013-07-27 08:21:00,69.9,69.6,30.00,NE,38,0.0,0.0,99,0.00,,,0.00,LWC V2.00 B2112,2013-07-27 12:21:00,
2013-07-27 08:26:00,70.3,70.0,30.00,NE,38,0.0,0.0,99,0.00,,,0.00,LWC V2.00 B2112,2013-07-27 12:26:00,
2013-07-27 08:31:00,70.4,70.1,30.00,NE,38,0.0,0.0,99,0.00,,,0.00,LWC V2.00 B2112,2013-07-27 12:31:00,
2013-07-27 08:36:00,70.6,70.3,30.00,NE,38,0.0,0.0,99,0.00,,,0.00,LWC V2.00 B2112,2013-07-27 12:36:00,
2013-07-27 08:41:00,70.6,70.0,30.01,NE,38,0.0,0.0,98,0.00,,,0.00,LWC V2.00 B2112,2013-07-27 12:41:00,
2013-07-27 08:46:00,70.8,70.2,30.01,NE,38,0.0,0.0,98,0.00,,,0.00,LWC V2.00 B2112,2013-07-27 12:46:00,
2013-07-27 08:51:00,70.8,70.2,30.01,NE,38,0.0,0.0,98,0.00,,,0.00,LWC V2.00 B2112,2013-07-27 12:51:00,
2013-07-27 08:56:00,70.9,70.3,30.01,NE,38,0.0,0.0,98,0.00,,,0.00,LWC V2.00 B2112,2013-07-27 12:56:00,
2013-07-27 09:01:00,71.1,70.5,30.01,NE,38,0.0,0.0,98,0.00,,,0.00,LWC V2.00 B2112,2013-07-27 13:01:00,
2013-07-27 09:06:00,71.3,70.7,30.01,NE,38,0.0,0.0,98,0.00,,,0.00,LWC V2.00 B2112,2013-07-27 13:06:00,
2013-07-27 09:11:00,71.6,71.0,30.00,NE,38,0.0,0.0,98,0.00,,,0.00,LWC V2.00 B2112,2013-07-27 13:11:00,
2013-07-27 09:16:00,72.0,71.4,30.00,NE,38,0.0,0.0,98,0.00,,,0.00,LWC V2.00 B2112,2013-07-27 13:16:00,
2013-07-27 09:21:00,72.3,71.7,30.00,NE,38,0.0,0.0,98,0.00,,,0.00,LWC V2.00 B2112,2013-07-27 13:21:00,
2013-07-27 09:26:00,72.5,71.6,30.00,NE,38,0.0,0.0,97,0.00,,,0.00,LWC V2.00 B2112,2013-07-27 13:26:00,
2013-07-27 09:31:00,72.8,71.6,30.00,NE,38,0.0,0.0,96,0.00,,,0.00,LWC V2.00 B2112,2013-07-27 13:31:00,
2013-07-27 09:36:00,73.0,71.8,30.00,NE,38,0.0,0.0,96,0.00,,,0.00,LWC V2.00 B2112,2013-07-27 13:36:00,
2013-07-27 09:41:00,73.2,71.7,30.00,NE,38,0.0,0.0,95,0.00,,,0.00,LWC V2.00 B2112,2013-07-27 13:41:00,
2013-07-27 09:46:00,73.5,71.3,30.00,NE,38,0.0,0.0,93,0.00,,,0.00,LWC V2.00 B2112,2013-07-27 13:46:00,
2013-07-27 09:51:00,73.7,71.5,30.00,NE,38,0.0,0.0,93,0.00,,,0.00,LWC V2.00 B2112,2013-07-27 13:51:00,
2013-07-27 09:56:00,73.9,71.7,30.00,NE,38,0.0,0.0,93,0.00,,,0.00,LWC V2.00 B2112,2013-07-27 13:56:00,
2013-07-27 10:01:00,74.0,71.5,30.00,NE,38,0.0,0.0,92,0.00,,,0.00,LWC V2.00 B2112,2013-07-27 14:01:00,
2013-07-27 10:06:00,74.2,71.7,30.00,NE,38,0.0,0.0,92,0.00,,,0.00,LWC V2.00 B2112,2013-07-27 14:06:00,
2013-07-27 10:11:00,74.6,71.8,29.99,NE,38,0.0,0.0,91,0.00,,,0.00,LWC V2.00 B2112,2013-07-27 14:11:00,
2013-07-27 10:16:00,74.7,71.9,29.99,NE,38,0.0,0.0,91,0.00,,,0.00,LWC V2.00 B2112,2013-07-27 14:16:00,
2013-07-27 10:21:00,74.7,71.6,29.99,NE,38,0.0,0.0,90,0.00,,,0.00,LWC V2.00 B2112,2013-07-27 14:21:00,
2013-07-27 10:26:00,74.9,71.8,29.99,NE,38,0.0,0.0,90,0.00,,,0.00,LWC V2.00 B2112,2013-07-27 14:26:00,
2013-07-27 10:31:00,75.1,71.6,29.99,NE,38,0.0,0.0,89,0.00,,,0.00,LWC V2.00 B2112,2013-07-27 14:31:00,
2013-07-27 10:36:00,75.3,71.5,29.99,NE,38,0.0,0.0,88,0.00,,,0.00,LWC V2.00 B2112,2013-07-27 14:36:00,
2013-07-27 10:41:00,75.3,70.5,29.99,NE,38,0.0,1.0,85,0.00,,,0.00,LWC V2.00 B2112,2013-07-27 14:41:00,
2013-07-27 10:46:00,75.8,71.0,29.99,NE,38,0.0,1.0,85,0.00,,,0.00,LWC V2.00 B2112,2013-07-27 14:46:00,
2013-07-27 10:51:00,76.0,70.1,29.99,SSW,204,0.0,1.0,82,0.00,,,0.00,LWC V2.00 B2112,2013-07-27 14:51:00,
2013-07-27 10:56:00,76.5,70.6,29.99,SSW,204,0.0,0.0,82,0.00,,,0.00,LWC V2.00 B2112,2013-07-27 14:56:00,
2013-07-27 11:01:00,76.8,69.0,29.99,SSW,204,0.0,0.0,77,0.00,,,0.00,LWC V2.00 B2112,2013-07-27 15:01:00,
2013-07-27 11:06:00,77.0,68.8,29.99,SSW,204,0.0,0.0,76,0.00,,,0.00,LWC V2.00 B2112,2013-07-27 15:06:00,
2013-07-27 11:11:00,77.2,69.4,29.99,SSW,204,0.0,1.0,77,0.00,,,0.00,LWC V2.00 B2112,2013-07-27 15:11:00,
2013-07-27 11:16:00,77.4,69.2,29.99,SSW,204,0.0,0.0,76,0.00,,,0.00,LWC V2.00 B2112,2013-07-27 15:16:00,
2013-07-27 11:21:00,77.6,69.0,29.99,SSW,205,0.0,1.0,75,0.00,,,0.00,LWC V2.00 B2112,2013-07-27 15:21:00,
2013-07-27 11:26:00,77.7,69.9,29.99,SSW,205,0.0,0.0,77,0.00,,,0.00,LWC V2.00 B2112,2013-07-27 15:26:00,
2013-07-27 11:31:00,77.9,70.8,29.99,SSW,205,0.0,0.0,79,0.00,,,0.00,LWC V2.00 B2112,2013-07-27 15:31:00,
2013-07-27 11:36:00,78.1,70.7,29.99,SSW,205,0.0,0.0,78,0.00,,,0.00,LWC V2.00 B2112,2013-07-27 15:36:00,
2013-07-27 11:41:00,78.1,69.5,29.98,SSW,205,0.0,0.0,75,0.00,,,0.00,LWC V2.00 B2112,2013-07-27 15:41:00,
2013-07-27 11:46:00,78.3,70.1,29.98,SSW,205,0.0,0.0,76,0.00,,,0.00,LWC V2.00 B2112,2013-07-27 15:46:00,
2013-07-27 11:51:00,78.6,71.1,29.98,West,265,0.0,1.0,78,0.00,,,0.00,LWC V2.00 B2112,2013-07-27 15:51:00,
2013-07-27 11:56:00,78.8,69.0,29.98,West,265,1.0,1.0,72,0.00,,,0.00,LWC V2.00 B2112,2013-07-27 15:56:00,
2013-07-27 12:01:00,79.2,68.5,29.98,West,265,0.0,0.0,70,0.00,,,0.00,LWC V2.00 B2112,2013-07-27 16:01:00,
2013-07-27 12:06:00,79.6,68.5,29.98,West,265,0.0,0.0,69,0.00,,,0.00,LWC V2.00 B2112,2013-07-27 16:06:00,
2013-07-27 12:11:00,79.8,68.3,29.97,West,265,0.0,1.0,68,0.00,,,0.00,LWC V2.00 B2112,2013-07-27 16:11:00,
2013-07-27 12:16:00,80.1,69.8,29.97,West,265,0.0,0.0,71,0.00,,,0.00,LWC V2.00 B2112,2013-07-27 16:16:00,
2013-07-27 12:21:00,80.5,69.8,29.97,West,265,0.0,0.0,70,0.00,,,0.00,LWC V2.00 B2112,2013-07-27 16:21:00,
2013-07-27 12:26:00,80.7,70.4,29.97,West,265,0.0,0.0,71,0.00,,,0.00,LWC V2.00 B2112,2013-07-27 16:26:00,
2013-07-27 12:31:00,80.9,71.0,29.97,West,265,0.0,0.0,72,0.00,,,0.00,LWC V2.00 B2112,2013-07-27 16:31:00,
2013-07-27 12:36:00,81.1,69.9,29.97,West,265,0.0,0.0,69,0.00,,,0.00,LWC V2.00 B2112,2013-07-27 16:36:00,
2013-07-27 12:41:00,81.4,69.8,29.96,West,265,0.0,1.0,68,0.00,,,0.00,LWC V2.00 B2112,2013-07-27 16:41:00,
2013-07-27 12:46:00,81.4,70.7,29.96,West,265,0.0,0.0,70,0.00,,,0.00,LWC V2.00 B2112,2013-07-27 16:46:00,
2013-07-27 12:51:00,81.8,70.6,29.96,West,265,0.0,0.0,69,0.00,,,0.00,LWC V2.00 B2112,2013-07-27 16:51:00,
2013-07-27 12:56:00,82.6,71.4,29.96,West,265,0.0,0.0,69,0.00,,,0.00,LWC V2.00 B2112,2013-07-27 16:56:00,
2013-07-27 13:01:00,82.6,71.8,29.96,West,265,0.0,0.0,70,0.00,,,0.00,LWC V2.00 B2112,2013-07-27 17:01:00,
2013-07-27 13:06:00,83.2,71.1,29.96,West,263,0.0,1.0,67,0.00,,,0.00,LWC V2.00 B2112,2013-07-27 17:06:00,
2013-07-27 13:11:00,83.0,70.0,29.96,West,263,1.0,2.0,65,0.00,,,0.00,LWC V2.00 B2112,2013-07-27 17:11:00,
2013-07-27 13:16:00,82.6,68.7,29.96,West,263,0.0,1.0,63,0.00,,,0.00,LWC V2.00 B2112,2013-07-27 17:16:00,
2013-07-27 13:21:00,82.4,69.9,29.96,West,263,0.0,0.0,66,0.00,,,0.00,LWC V2.00 B2112,2013-07-27 17:21:00,
2013-07-27 13:26:00,82.0,69.9,29.95,West,263,0.0,0.0,67,0.00,,,0.00,LWC V2.00 B2112,2013-07-27 17:26:00,
2013-07-27 13:31:00,82.0,69.5,29.95,West,263,0.0,0.0,66,0.00,,,0.00,LWC V2.00 B2112,2013-07-27 17:31:00,
2013-07-27 13:36:00,81.8,70.2,29.95,West,263,0.0,0.0,68,0.00,,,0.00,LWC V2.00 B2112,2013-07-27 17:36:00,
2013-07-27 13:42:00,81.6,71.3,29.94,West,263,0.0,0.0,71,0.00,,,0.00,LWC V2.00 B2112,2013-07-27 17:42:00,
2013-07-27 13:47:00,81.4,69.4,29.94,West,263,0.0,1.0,67,0.00,,,0.00,LWC V2.00 B2112,2013-07-27 17:47:00,
2013-07-27 13:52:00,81.6,70.4,29.94,West,263,0.0,1.0,69,0.00,,,0.00,LWC V2.00 B2112,2013-07-27 17:52:00,
2013-07-27 13:57:00,81.8,70.6,29.94,West,263,0.0,0.0,69,0.00,,,0.00,LWC V2.00 B2112,2013-07-27 17:57:00,
2013-07-27 14:02:00,82.2,71.4,29.94,West,263,0.0,0.0,70,0.00,,,0.00,LWC V2.00 B2112,2013-07-27 18:02:00,
2013-07-27 14:07:00,82.6,70.5,29.94,West,261,0.0,1.0,67,0.00,,,0.00,LWC V2.00 B2112,2013-07-27 18:07:00,
2013-07-27 14:12:00,82.4,69.9,29.93,West,261,0.0,0.0,66,0.00,,,0.00,LWC V2.00 B2112,2013-07-27 18:12:00,
2013-07-27 14:17:00,82.4,70.8,29.93,West,261,0.0,0.0,68,0.00,,,0.00,LWC V2.00 B2112,2013-07-27 18:17:00,
2013-07-27 14:22:00,82.2,70.1,29.93,West,261,0.0,0.0,67,0.00,,,0.00,LWC V2.00 B2112,2013-07-27 18:22:00,
2013-07-27 14:27:00,82.8,69.8,29.92,West,261,0.0,0.0,65,0.00,,,0.00,LWC V2.00 B2112,2013-07-27 18:27:00,
2013-07-27 14:32:00,83.6,67.7,29.92,West,261,0.0,0.0,59,0.00,,,0.00,LWC V2.00 B2112,2013-07-27 18:32:00,
2013-07-27 14:37:00,83.8,68.4,29.92,West,261,0.0,0.0,60,0.00,,,0.00,LWC V2.00 B2112,2013-07-27 18:37:00,
2013-07-27 14:42:00,83.8,67.9,29.92,West,261,0.0,1.0,59,0.00,,,0.00,LWC V2.00 B2112,2013-07-27 18:42:00,
2013-07-27 14:47:00,84.0,69.5,29.92,West,261,0.0,0.0,62,0.00,,,0.00,LWC V2.00 B2112,2013-07-27 18:47:00,
2013-07-27 14:52:00,83.8,70.3,29.92,West,261,0.0,0.0,64,0.00,,,0.00,LWC V2.00 B2112,2013-07-27 18:52:00,
2013-07-27 14:57:00,83.4,70.4,29.91,West,261,0.0,0.0,65,0.00,,,0.00,LWC V2.00 B2112,2013-07-27 18:57:00,
2013-07-27 15:02:00,83.0,70.0,29.91,West,261,0.0,0.0,65,0.00,,,0.00,LWC V2.00 B2112,2013-07-27 19:02:00,
2013-07-27 15:07:00,82.6,70.9,29.91,West,261,0.0,1.0,68,0.00,,,0.00,LWC V2.00 B2112,2013-07-27 19:07:00,
2013-07-27 15:12:00,83.2,69.7,29.91,West,261,0.0,0.0,64,0.00,,,0.00,LWC V2.00 B2112,2013-07-27 19:12:00,
2013-07-27 15:17:00,83.4,69.9,29.91,West,261,0.0,0.0,64,0.00,,,0.00,LWC V2.00 B2112,2013-07-27 19:17:00,
2013-07-27 15:22:00,83.2,69.7,29.91,West,261,0.0,0.0,64,0.00,,,0.00,LWC V2.00 B2112,2013-07-27 19:22:00,
2013-07-27 15:27:00,83.0,70.0,29.92,West,261,0.0,0.0,65,0.00,,,0.00,LWC V2.00 B2112,2013-07-27 19:27:00,
2013-07-27 15:32:00,82.8,70.3,29.92,West,261,0.0,0.0,66,0.00,,,0.00,LWC V2.00 B2112,2013-07-27 19:32:00,
2013-07-27 15:37:00,82.6,70.5,29.92,West,261,0.0,0.0,67,0.00,,,0.00,LWC V2.00 B2112,2013-07-27 19:37:00,
2013-07-27 15:42:00,82.4,70.3,29.91,West,261,0.0,0.0,67,0.00,,,0.00,LWC V2.00 B2112,2013-07-27 19:42:00,
2013-07-27 15:47:00,82.0,70.4,29.91,West,261,0.0,0.0,68,0.00,,,0.00,LWC V2.00 B2112,2013-07-27 19:47:00,
2013-07-27 15:52:00,81.8,70.6,29.91,West,261,0.0,0.0,69,0.00,,,0.00,LWC V2.00 B2112,2013-07-27 19:52:00,
2013-07-27 15:57:00,81.6,71.3,29.91,West,261,0.0,0.0,71,0.00,,,0.00,LWC V2.00 B2112,2013-07-27 19:57:00,
2013-07-27 16:02:00,81.6,71.7,29.91,West,261,0.0,0.0,72,0.00,,,0.00,LWC V2.00 B2112,2013-07-27 20:02:00,
2013-07-27 16:07:00,81.6,71.7,29.91,West,261,0.0,0.0,72,0.00,,,0.00,LWC V2.00 B2112,2013-07-27 20:07:00,
2013-07-27 16:12:00,81.2,71.3,29.91,West,261,0.0,0.0,72,0.00,,,0.00,LWC V2.00 B2112,2013-07-27 20:12:00,
2013-07-27 16:17:00,80.9,71.4,29.91,West,261,0.0,0.0,73,0.00,,,0.00,LWC V2.00 B2112,2013-07-27 20:17:00,
2013-07-27 16:22:00,80.5,70.6,29.91,West,261,0.0,0.0,72,0.00,,,0.00,LWC V2.00 B2112,2013-07-27 20:22:00,
2013-07-27 16:27:00,80.3,71.2,29.91,West,261,0.0,0.0,74,0.00,,,0.00,LWC V2.00 B2112,2013-07-27 20:27:00,
2013-07-27 16:32:00,80.1,71.4,29.91,West,261,0.0,0.0,75,0.00,,,0.00,LWC V2.00 B2112,2013-07-27 20:32:00,
2013-07-27 16:37:00,80.1,71.4,29.91,West,261,0.0,0.0,75,0.00,,,0.00,LWC V2.00 B2112,2013-07-27 20:37:00,
2013-07-27 16:42:00,80.1,71.4,29.90,West,261,0.0,0.0,75,0.00,,,0.00,LWC V2.00 B2112,2013-07-27 20:42:00,
2013-07-27 16:47:00,80.1,71.4,29.90,West,261,0.0,0.0,75,0.00,,,0.00,LWC V2.00 B2112,2013-07-27 20:47:00,
2013-07-27 16:52:00,80.1,71.4,29.90,West,261,0.0,0.0,75,0.00,,,0.00,LWC V2.00 B2112,2013-07-27 20:52:00,
2013-07-27 16:57:00,79.9,71.6,29.91,West,261,0.0,0.0,76,0.00,,,0.00,LWC V2.00 B2112,2013-07-27 20:57:00,
2013-07-27 17:02:00,79.8,71.5,29.91,West,261,0.0,0.0,76,0.00,,,0.00,LWC V2.00 B2112,2013-07-27 21:02:00,
2013-07-27 17:07:00,79.6,71.3,29.91,West,261,0.0,0.0,76,0.00,,,0.00,LWC V2.00 B2112,2013-07-27 21:07:00,
2013-07-27 17:12:00,79.6,72.1,29.91,West,261,0.0,0.0,78,0.00,,,0.00,LWC V2.00 B2112,2013-07-27 21:12:00,
2013-07-27 17:17:00,79.6,71.7,29.91,West,261,0.0,0.0,77,0.00,,,0.00,LWC V2.00 B2112,2013-07-27 21:17:00,
2013-07-27 17:22:00,79.4,72.3,29.91,West,261,0.0,0.0,79,0.00,,,0.00,LWC V2.00 B2112,2013-07-27 21:22:00,
2013-07-27 17:27:00,79.4,72.3,29.91,West,261,0.0,0.0,79,0.00,,,0.00,LWC V2.00 B2112,2013-07-27 21:27:00,
2013-07-27 17:32:00,79.2,72.1,29.91,West,261,0.0,0.0,79,0.00,,,0.00,LWC V2.00 B2112,2013-07-27 21:32:00,
2013-07-27 17:37:00,79.0,71.9,29.91,West,261,0.0,0.0,79,0.00,,,0.00,LWC V2.00 B2112,2013-07-27 21:37:00,
2013-07-27 17:42:00,78.6,71.9,29.92,West,261,0.0,0.0,80,0.00,,,0.00,LWC V2.00 B2112,2013-07-27 21:42:00,
2013-07-27 17:47:00,78.5,71.8,29.92,West,261,0.0,0.0,80,0.00,,,0.00,LWC V2.00 B2112,2013-07-27 21:47:00,
2013-07-27 17:52:00,78.5,72.2,29.92,West,261,0.0,0.0,81,0.00,,,0.00,LWC V2.00 B2112,2013-07-27 21:52:00,
2013-07-27 17:57:00,78.5,72.2,29.91,West,261,0.0,0.0,81,0.00,,,0.00,LWC V2.00 B2112,2013-07-27 21:57:00,
2013-07-27 18:02:00,78.3,72.0,29.91,West,261,0.0,0.0,81,0.00,,,0.00,LWC V2.00 B2112,2013-07-27 22:02:00,
2013-07-27 18:07:00,78.1,72.1,29.91,West,261,0.0,0.0,82,0.00,,,0.00,LWC V2.00 B2112,2013-07-27 22:07:00,
2013-07-27 18:12:00,78.1,72.5,29.91,West,261,0.0,0.0,83,0.00,,,0.00,LWC V2.00 B2112,2013-07-27 22:12:00,
2013-07-27 18:17:00,77.9,71.6,29.91,West,259,0.0,1.0,81,0.00,,,0.00,LWC V2.00 B2112,2013-07-27 22:17:00,
2013-07-27 18:22:00,77.7,71.8,29.91,West,259,0.0,0.0,82,0.00,,,0.00,LWC V2.00 B2112,2013-07-27 22:22:00,
2013-07-27 18:27:00,77.2,69.8,29.92,West,259,0.0,1.0,78,0.00,,,0.00,LWC V2.00 B2112,2013-07-27 22:27:00,
2013-07-27 18:32:00,76.7,68.5,29.92,NE,46,0.0,3.0,76,0.00,,,0.00,LWC V2.00 B2112,2013-07-27 22:32:00,
2013-07-27 18:37:00,76.3,68.9,29.92,ENE,59,2.0,2.0,78,0.00,,,0.00,LWC V2.00 B2112,2013-07-27 22:37:00,
2013-07-27 18:42:00,75.8,69.2,29.92,ENE,59,0.0,0.0,80,0.00,,,0.00,LWC V2.00 B2112,2013-07-27 22:42:00,
2013-07-27 18:47:00,75.3,69.8,29.92,ENE,59,0.0,0.0,83,0.24,,,0.02,LWC V2.00 B2112,2013-07-27 22:47:00,
2013-07-27 18:52:00,74.6,69.8,29.92,NE,46,0.0,0.0,85,0.89,,,0.10,LWC V2.00 B2112,2013-07-27 22:52:00,
2013-07-27 18:57:00,73.9,70.1,29.92,NE,46,0.0,0.0,88,0.18,,,0.12,LWC V2.00 B2112,2013-07-27 22:57:00,
2013-07-27 19:02:00,73.3,69.9,29.92,NE,46,0.0,0.0,89,0.10,,,0.13,LWC V2.00 B2112,2013-07-27 23:02:00,
2013-07-27 19:07:00,72.8,69.7,29.92,NE,46,0.0,0.0,90,0.10,,,0.13,LWC V2.00 B2112,2013-07-27 23:07:00,
2013-07-27 19:12:00,72.5,70.0,29.92,NE,46,0.0,0.0,92,0.06,,,0.14,LWC V2.00 B2112,2013-07-27 23:12:00,
2013-07-27 19:17:00,72.3,69.8,29.92,NE,46,0.0,0.0,92,0.06,,,0.14,LWC V2.00 B2112,2013-07-27 23:17:00,
2013-07-27 19:22:00,72.1,69.6,29.92,NE,46,0.0,0.0,92,0.05,,,0.14,LWC V2.00 B2112,2013-07-27 23:22:00,
2013-07-27 19:27:00,72.0,69.9,29.91,NE,46,0.0,0.0,93,0.04,,,0.15,LWC V2.00 B2112,2013-07-27 23:27:00,
2013-07-27 19:32:00,71.8,69.7,29.91,NE,46,0.0,0.0,93,0.04,,,0.15,LWC V2.00 B2112,2013-07-27 23:32:00,
2013-07-27 19:37:00,71.8,70.0,29.91,NE,46,0.0,0.0,94,0.04,,,0.15,LWC V2.00 B2112,2013-07-27 23:37:00,
2013-07-27 19:42:00,71.8,70.0,29.89,NE,46,0.0,0.0,94,0.04,,,0.15,LWC V2.00 B2112,2013-07-27 23:42:00,
2013-07-27 19:47:00,71.6,70.1,29.89,NE,46,0.0,0.0,95,0.00,,,0.15,LWC V2.00 B2112,2013-07-27 23:47:00,
2013-07-27 19:52:00,71.6,70.1,29.89,NE,46,0.0,0.0,95,0.00,,,0.15,LWC V2.00 B2112,2013-07-27 23:52:00,
2013-07-27 19:57:00,71.6,70.1,29.90,NE,46,0.0,0.0,95,0.00,,,0.16,LWC V2.00 B2112,2013-07-27 23:57:00,
2013-07-27 20:02:00,71.5,70.3,29.90,NE,46,0.0,0.0,96,0.00,,,0.16,LWC V2.00 B2112,2013-07-28 00:02:00,
2013-07-27 20:07:00,71.5,70.3,29.90,NE,46,0.0,0.0,96,0.00,,,0.16,LWC V2.00 B2112,2013-07-28 00:07:00,
2013-07-27 20:12:00,71.3,70.1,29.90,NE,46,0.0,0.0,96,0.00,,,0.16,LWC V2.00 B2112,2013-07-28 00:12:00,
2013-07-27 20:17:00,71.3,70.1,29.90,NE,46,0.0,0.0,96,0.00,,,0.16,LWC V2.00 B2112,2013-07-28 00:17:00,
2013-07-27 20:22:00,71.3,70.1,29.90,NE,46,0.0,0.0,96,0.00,,,0.16,LWC V2.00 B2112,2013-07-28 00:22:00,
2013-07-27 20:27:00,71.3,70.1,29.91,NE,46,0.0,0.0,96,0.00,,,0.16,LWC V2.00 B2112,2013-07-28 00:27:00,
2013-07-27 20:32:00,71.3,70.1,29.91,NE,46,0.0,0.0,96,0.00,,,0.16,LWC V2.00 B2112,2013-07-28 00:32:00,
2013-07-27 20:37:00,71.1,69.9,29.91,NE,46,0.0,0.0,96,0.00,,,0.16,LWC V2.00 B2112,2013-07-28 00:37:00,
2013-07-27 20:42:00,71.3,70.4,29.91,NE,46,0.0,0.0,97,0.00,,,0.17,LWC V2.00 B2112,2013-07-28 00:42:00,
2013-07-27 20:47:00,71.3,70.4,29.91,NE,46,0.0,0.0,97,0.00,,,0.17,LWC V2.00 B2112,2013-07-28 00:47:00,
2013-07-27 20:52:00,71.3,70.4,29.91,NE,46,0.0,0.0,97,0.00,,,0.17,LWC V2.00 B2112,2013-07-28 00:52:00,
2013-07-27 20:57:00,71.3,70.4,29.91,NE,46,0.0,0.0,97,0.00,,,0.17,LWC V2.00 B2112,2013-07-28 00:57:00,
2013-07-27 21:02:00,71.3,70.4,29.91,NE,46,0.0,0.0,97,0.00,,,0.17,LWC V2.00 B2112,2013-07-28 01:02:00,
2013-07-27 21:07:00,71.3,70.4,29.91,NE,46,0.0,0.0,97,0.00,,,0.17,LWC V2.00 B2112,2013-07-28 01:07:00,
2013-07-27 21:12:00,71.3,70.4,29.91,NE,46,0.0,0.0,97,0.00,,,0.17,LWC V2.00 B2112,2013-07-28 01:12:00,
2013-07-27 21:17:00,71.3,70.4,29.91,NE,46,0.0,0.0,97,0.00,,,0.17,LWC V2.00 B2112,2013-07-28 01:17:00,
2013-07-27 21:22:00,71.3,70.4,29.91,NE,46,0.0,0.0,97,0.00,,,0.17,LWC V2.00 B2112,2013-07-28 01:22:00,
2013-07-27 21:27:00,71.3,70.4,29.92,NE,46,0.0,0.0,97,0.00,,,0.17,LWC V2.00 B2112,2013-07-28 01:27:00,
2013-07-27 21:32:00,71.3,70.4,29.92,NE,46,0.0,0.0,97,0.00,,,0.17,LWC V2.00 B2112,2013-07-28 01:32:00,
2013-07-27 21:37:00,71.3,70.4,29.92,NE,46,0.0,0.0,97,0.00,,,0.17,LWC V2.00 B2112,2013-07-28 01:37:00,
2013-07-27 21:42:00,71.3,70.4,29.92,NE,46,0.0,0.0,97,0.00,,,0.17,LWC V2.00 B2112,2013-07-28 01:42:00,
2013-07-27 21:47:00,71.3,70.4,29.92,NE,46,0.0,0.0,97,0.00,,,0.17,LWC V2.00 B2112,2013-07-28 01:47:00,
2013-07-27 21:52:00,71.3,70.7,29.92,NE,46,0.0,0.0,98,0.00,,,0.17,LWC V2.00 B2112,2013-07-28 01:52:00,
2013-07-27 21:57:00,71.3,70.7,29.92,NE,46,0.0,0.0,98,0.00,,,0.17,LWC V2.00 B2112,2013-07-28 01:57:00,
2013-07-27 22:02:00,71.1,70.5,29.92,NE,46,0.0,0.0,98,0.00,,,0.17,LWC V2.00 B2112,2013-07-28 02:02:00,
2013-07-27 22:07:00,71.1,70.5,29.92,NE,46,0.0,0.0,98,0.00,,,0.17,LWC V2.00 B2112,2013-07-28 02:07:00,
2013-07-27 22:12:00,71.1,70.5,29.92,NE,46,0.0,0.0,98,0.00,,,0.17,LWC V2.00 B2112,2013-07-28 02:12:00,
2013-07-27 22:17:00,71.1,70.5,29.92,NE,46,0.0,0.0,98,0.00,,,0.17,LWC V2.00 B2112,2013-07-28 02:17:00,
2013-07-27 22:22:00,71.1,70.5,29.92,NE,46,0.0,0.0,98,0.00,,,0.17,LWC V2.00 B2112,2013-07-28 02:22:00,
2013-07-27 22:27:00,71.1,70.5,29.92,NE,46,0.0,0.0,98,0.00,,,0.17,LWC V2.00 B2112,2013-07-28 02:27:00,
2013-07-27 22:32:00,71.1,70.5,29.92,NE,46,0.0,0.0,98,0.00,,,0.17,LWC V2.00 B2112,2013-07-28 02:32:00,
2013-07-27 22:37:00,71.1,70.5,29.92,NE,46,0.0,0.0,98,0.00,,,0.17,LWC V2.00 B2112,2013-07-28 02:37:00,
2013-07-27 22:42:00,71.1,70.5,29.91,NE,46,0.0,0.0,98,0.00,,,0.17,LWC V2.00 B2112,2013-07-28 02:42:00,
2013-07-27 22:47:00,71.1,70.5,29.91,NE,46,0.0,0.0,98,0.00,,,0.17,LWC V2.00 B2112,2013-07-28 02:47:00,
2013-07-27 22:52:00,71.1,70.5,29.91,NE,46,0.0,0.0,98,0.00,,,0.17,LWC V2.00 B2112,2013-07-28 02:52:00,
2013-07-27 22:57:00,71.1,70.5,29.91,NE,46,0.0,0.0,98,0.00,,,0.17,LWC V2.00 B2112,2013-07-28 02:57:00,
2013-07-27 23:02:00,71.1,70.5,29.91,NE,46,0.0,0.0,98,0.00,,,0.17,LWC V2.00 B2112,2013-07-28 03:02:00,
2013-07-27 23:07:00,71.1,70.5,29.91,NE,46,0.0,0.0,98,0.00,,,0.17,LWC V2.00 B2112,2013-07-28 03:07:00,
2013-07-27 23:12:00,71.1,70.5,29.91,NE,46,0.0,0.0,98,0.00,,,0.17,LWC V2.00 B2112,2013-07-28 03:12:00,
2013-07-27 23:17:00,71.1,70.5,29.91,NE,46,0.0,0.0,98,0.00,,,0.17,LWC V2.00 B2112,2013-07-28 03:17:00,
2013-07-27 23:22:00,71.1,70.5,29.91,NE,46,0.0,0.0,98,0.00,,,0.17,LWC V2.00 B2112,2013-07-28 03:22:00,
2013-07-27 23:27:00,71.1,70.5,29.91,NE,46,0.0,0.0,98,0.00,,,0.17,LWC V2.00 B2112,2013-07-28 03:27:00,
2013-07-27 23:32:00,71.1,70.5,29.91,NE,46,0.0,0.0,98,0.00,,,0.17,LWC V2.00 B2112,2013-07-28 03:32:00,
2013-07-27 23:37:00,71.1,70.5,29.91,NE,46,0.0,0.0,98,0.00,,,0.17,LWC V2.00 B2112,2013-07-28 03:37:00,
2013-07-27 23:42:00,71.1,70.5,29.90,NE,46,0.0,0.0,98,0.00,,,0.17,LWC V2.00 B2112,2013-07-28 03:42:00,
2013-07-27 23:47:00,71.1,70.5,29.90,NE,46,0.0,0.0,98,0.00,,,0.17,LWC V2.00 B2112,2013-07-28 03:47:00,
2013-07-27 23:52:00,71.1,70.5,29.90,NE,46,0.0,0.0,98,0.00,,,0.17,LWC V2.00 B2112,2013-07-28 03:52:00,
2013-07-27 23:57:00,71.1,70.5,29.91,NE,46,0.0,0.0,98,0.00,,,0.17,LWC V2.00 B2112,2013-07-28 03:57:00,